TimeCST,TemperatureF,Dew PointF,Humidity,Sea Level PressureIn,VisibilityMPH,Wind Direction,Wind SpeedMPH,Gust SpeedMPH,PrecipitationIn,Events,Conditions,WindDirDegrees,DateUTC
12:56 AM,55.9,46.0,69,30.12,10.0,NNW,12.7,-,N/A,,Clear,340,2012-11-24 06:56:00
1:56 AM,53.1,45.0,74,30.12,10.0,NNW,12.7,-,N/A,,Clear,340,2012-11-24 07:56:00
2:56 AM,50.0,41.0,71,30.13,10.0,North,12.7,-,N/A,,Clear,350,2012-11-24 08:56:00
3:56 AM,48.0,39.0,71,30.13,10.0,NNW,8.1,-,N/A,,Clear,340,2012-11-24 09:56:00
4:56 AM,46.0,37.9,73,30.16,10.0,NNW,11.5,-,N/A,,Clear,340,2012-11-24 10:56:00
5:56 AM,43.0,37.0,80,30.19,10.0,NNW,5.8,-,N/A,,Clear,330,2012-11-24 11:56:00
6:56 AM,43.0,36.0,76,30.20,10.0,NNW,9.2,-,N/A,,Clear,340,2012-11-24 12:56:00
7:56 AM,46.9,36.0,66,30.21,10.0,North,10.4,-,N/A,,Clear,350,2012-11-24 13:56:00
8:56 AM,50.0,35.1,57,30.21,10.0,North,11.5,-,N/A,,Clear,10,2012-11-24 14:56:00
9:56 AM,54.0,34.0,47,30.21,10.0,North,11.5,-,N/A,,Clear,360,2012-11-24 15:56:00
10:56 AM,57.0,30.9,37,30.19,10.0,North,11.5,-,N/A,,Clear,360,2012-11-24 16:56:00
11:56 AM,57.9,30.0,35,30.15,10.0,North,6.9,-,N/A,,Clear,360,2012-11-24 17:56:00
12:56 PM,60.1,28.9,31,30.13,10.0,North,11.5,18.4,N/A,,Clear,350,2012-11-24 18:56:00
1:56 PM,61.0,28.9,30,30.11,10.0,NNW,12.7,17.3,N/A,,Clear,330,2012-11-24 19:56:00
2:56 PM,60.1,27.0,28,30.12,10.0,North,12.7,-,N/A,,Clear,10,2012-11-24 20:56:00
3:56 PM,57.9,28.0,32,30.12,10.0,North,10.4,-,N/A,,Clear,350,2012-11-24 21:56:00
4:56 PM,50.0,28.9,44,30.13,10.0,NNW,6.9,-,N/A,,Clear,330,2012-11-24 22:56:00
5:56 PM,48.9,27.0,43,30.14,10.0,NNW,9.2,-,N/A,,Clear,340,2012-11-24 23:56:00
6:56 PM,48.0,26.1,42,30.15,10.0,North,9.2,-,N/A,,Clear,350,2012-11-25 00:56:00
7:56 PM,48.0,25.0,41,30.15,10.0,North,9.2,-,N/A,,Clear,350,2012-11-25 01:56:00
8:56 PM,44.1,26.1,49,30.16,10.0,North,9.2,-,N/A,,Clear,350,2012-11-25 02:56:00
9:56 PM,43.0,26.1,51,30.15,10.0,North,6.9,-,N/A,,Clear,10,2012-11-25 03:56:00
10:56 PM,41.0,25.0,53,30.14,10.0,North,5.8,-,N/A,,Clear,360,2012-11-25 04:56:00
11:56 PM,39.0,25.0,57,30.13,10.0,North,5.8,-,N/A,,Clear,360,2012-11-25 05:56:00